FW9253 Weather Reports


time (UTC)temp
C
wind
direction
speed
KPH
gust
KPH
rain 1hr
cm
rain 24hr
cm
rain mn
cm
humidity
%
barometer
mb
20260507134156 18 0 0.0 0.0 0.00 0.00 0.00 63 1011.6
20260507132356 20 0 0.0 0.0 0.00 0.00 0.00 47 1011.6
20260507131456 22 248 0.0 4.8 0.00 0.00 0.00 26 1011.6
20260507130556 22 281 0.0 6.4 0.00 0.00 0.00 6 1011.6
20260507125655 22 281 0.0 6.4 0.00 0.00 0.00 16 1011.6
20260507124755 22 0 0.0 0.0 0.00 0.00 0.00 21 1011.6
20260507123855 22 0 0.0 0.0 0.00 0.00 0.00 16 1011.6
20260507122955 23 0 0.0 0.0 0.00 0.00 0.00 11 1011.6
20260507122055 23 79 0.0 11.3 0.00 0.00 0.00 2 1011.6
20260507121155 24 248 0.0 1.6 0.00 0.00 0.00 8 1010.6
20260507120255 25 54 0.0 8.0 0.00 0.00 0.00 2 1010.6
20260507115355 26 23 0.0 11.3 0.00 0.00 0.00 2 1011.6
20260507114455 30 10 1.6 12.9 0.00 0.00 0.00 2 1011.6
20260507113555 33 326 1.6 4.8 0.00 0.00 0.00 2 1011.6
20260507112655 32 281 0.0 9.7 0.00 0.00 0.00 2 1011.6
20260507110855 31 255 0.0 6.4 0.00 0.00 0.00 2 1011.6
20260507105955 31 232 0.0 4.8 0.00 0.00 0.00 2 1011.6
20260507105055 30 0 0.0 0.0 0.00 0.00 0.00 2 1011.6
20260507102355 32 31 0.0 4.8 0.00 0.00 0.00 2 1011.6
20260507101455 34 288 0.0 3.2 0.00 0.00 0.00 2 1011.6
20260507094755 33 353 0.0 6.4 0.00 0.00 0.00 2 1011.6
20260507093855 33 285 0.0 9.7 0.00 0.00 0.00 2 1010.6
20260507092955 33 20 0.0 6.4 0.00 0.00 0.00 2 1010.6
20260507092055 33 307 1.6 6.4 0.00 0.00 0.00 2 1011.6
20260507091155 33 68 0.0 1.6 0.00 0.00 0.00 2 1011.6
20260507090255 32 275 0.0 9.7 0.00 0.00 0.00 2 1011.6
20260507085354 33 0 0.0 0.0 0.00 0.00 0.00 2 1011.6
20260507084455 33 292 0.0 4.8 0.00 0.00 0.00 2 1011.6
20260507083554 33 309 0.0 3.2 0.00 0.00 0.00 2 1012.7
20260507081754 32 292 0.0 1.6 0.00 0.00 0.00 2 1012.7
20260507080854 32 41 0.0 4.8 0.00 0.00 0.00 2 1012.7
20260507075954 32 68 0.0 9.7 0.00 0.00 0.00 2 1012.7
20260507075054 31 39 0.0 9.7 0.00 0.00 0.00 2 1012.7
20260507074154 31 339 0.0 4.8 0.00 0.00 0.00 2 1012.7
20260507073254 31 292 0.0 1.6 0.00 0.00 0.00 2 1012.7
20260507071454 31 292 0.0 3.2 0.00 0.00 0.00 2 1012.7
20260507070554 31 270 0.0 6.4 0.00 0.00 0.00 2 1012.7
20260507064754 31 0 0.0 0.0 0.00 0.00 0.00 2 1012.7
20260507063857 30 292 0.0 6.4 0.00 0.00 0.00 2 1011.6
20260507062954 30 0 0.0 0.0 0.00 0.00 0.00 2 1011.6
20260507062054 29 0 0.0 0.0 0.00 0.00 0.00 2 1011.6
20260507061154 29 270 0.0 6.4 0.00 0.00 0.00 2 1011.6
20260507060254 28 0 0.0 0.0 0.00 0.00 0.00 2 1011.6
20260507054454 28 248 0.0 1.6 0.00 0.00 0.00 9 1011.6
20260507052654 27 0 0.0 0.0 0.00 0.00 0.00 20 1012.7
20260507051754 27 0 0.0 0.0 0.00 0.00 0.00 22 1012.7
20260507050854 26 0 0.0 0.0 0.00 0.00 0.00 23 1011.6
20260507045954 26 0 0.0 0.0 0.00 0.00 0.00 31 1011.6
20260507045054 25 0 0.0 0.0 0.00 0.00 0.00 33 1010.6
20260507044153 23 0 0.0 0.0 0.00 0.00 0.00 39 1010.6
20260507043254 22 0 0.0 0.0 0.00 0.00 0.00 45 1010.6
20260507042354 20 0 0.0 0.0 0.00 0.00 0.00 49 1010.6
20260507040553 19 0 0.0 0.0 0.00 0.00 0.00 47 1009.6
20260507035654 19 0 0.0 0.0 0.00 0.00 0.00 49 1009.6
20260507034753 18 0 0.0 0.0 0.00 0.00 0.00 50 1009.6
20260507033853 18 0 0.0 0.0 0.00 0.00 0.00 51 1008.6
20260507032955 17 0 0.0 0.0 0.00 0.00 0.00 56 1008.6
20260507032053 16 0 0.0 0.0 0.00 0.00 0.00 55 1009.6
20260507025353 15 0 0.0 0.0 0.00 0.00 0.00 63 1008.6
20260507024453 14 0 0.0 0.0 0.00 0.00 0.00 64 1008.6
20260507022653 13 0 0.0 0.0 0.00 0.00 0.00 67 1008.6
20260507021754 12 0 0.0 0.0 0.00 0.00 0.00 67 1008.6
20260507020853 12 0 0.0 0.0 0.00 0.00 0.00 67 1008.6
20260507015953 12 0 0.0 0.0 0.00 0.00 0.00 67 1008.6
20260507015053 12 0 0.0 0.0 0.00 0.00 0.00 68 1008.6
20260507014153 12 0 0.0 0.0 0.00 0.00 0.00 67 1008.6
20260507013254 12 0 0.0 0.0 0.00 0.00 0.00 67 1008.6
20260507012353 12 0 0.0 0.0 0.00 0.00 0.00 67 1008.6
20260507011453 12 0 0.0 0.0 0.00 0.00 0.00 66 1008.6
20260507010553 12 0 0.0 0.0 0.00 0.00 0.00 66 1008.6
20260507004753 12 0 0.0 0.0 0.00 0.00 0.00 66 1007.6
20260507002952 12 0 0.0 0.0 0.00 0.00 0.00 66 1007.6
20260507002052 12 0 0.0 0.0 0.00 0.00 0.00 66 1007.6
20260507001152 12 0 0.0 0.0 0.00 0.00 0.00 67 1007.6
20260507000254 12 0 0.0 0.0 0.00 0.00 0.00 66 1007.6
20260506235352 12 0 0.0 0.0 0.00 0.00 0.00 67 1007.6
20260506234453 12 0 0.0 0.0 0.00 0.00 0.00 66 1007.6
20260506233552 12 0 0.0 0.0 0.00 0.00 0.00 66 1007.6
20260506232652 12 0 0.0 0.0 0.00 0.00 0.00 66 1007.6
20260506231752 12 0 0.0 0.0 0.00 0.00 0.00 67 1007.6
20260506230852 12 0 0.0 0.0 0.00 0.00 0.00 67 1007.6
20260506225952 12 0 0.0 0.0 0.00 0.00 0.00 66 1007.6
20260506225052 12 0 0.0 0.0 0.00 0.00 0.00 67 1007.6
20260506224152 12 0 0.0 0.0 0.00 0.00 0.00 67 1007.6
20260506223252 12 0 0.0 0.0 0.00 0.00 0.00 68 1007.6
20260506222352 12 0 0.0 0.0 0.00 0.00 0.00 68 1007.6
20260506221452 13 0 0.0 0.0 0.00 0.00 0.00 68 1007.6
20260506220552 13 0 0.0 0.0 0.00 0.00 0.00 69 1007.6
20260506213852 13 0 0.0 0.0 0.00 0.00 0.00 70 1008.6
20260506211152 13 0 0.0 0.0 0.00 0.00 0.00 70 1007.6
20260506204502 14 0 0.0 0.0 0.00 0.00 0.00 71 1008.6
20260506203602 14 0 0.0 0.0 0.00 0.00 0.00 71 1008.6
20260506202702 14 0 0.0 0.0 0.00 0.00 0.00 71 1008.6
20260506201802 14 0 0.0 0.0 0.00 0.00 0.00 73 1008.6
20260506200002 15 0 0.0 0.0 0.00 0.00 0.00 73 1008.6
20260506194202 15 0 0.0 0.0 0.00 0.00 0.00 71 1009.6
20260506193302 15 90 0.0 1.6 0.00 0.00 0.00 68 1009.6
20260506192401 16 225 0.0 3.2 0.00 0.00 0.00 66 1008.6
20260506191501 16 158 0.0 1.6 0.00 0.00 0.00 61 1008.6
20260506185702 17 11 6.4 9.7 0.00 0.00 0.00 43 1008.6
20260506184801 17 181 0.0 1.6 0.00 0.00 0.00 36 1008.6
20260506183901 17 0 0.0 0.0 0.00 0.00 0.00 37 1008.6
20260506183001 17 139 0.0 3.2 0.00 0.00 0.00 38 1008.6
20260506182101 16 158 0.0 4.8 0.00 0.00 0.00 39 1008.6
20260506180302 16 158 0.0 1.6 0.00 0.00 0.00 39 1009.6
20260506175401 16 0 0.0 0.0 0.00 0.00 0.00 38 1009.6
20260506174502 16 0 0.0 0.0 0.00 0.00 0.00 39 1009.6
20260506173601 16 182 0.0 3.2 0.00 0.00 0.00 38 1009.6
20260506172701 16 0 0.0 0.0 0.00 0.00 0.00 38 1009.6
20260506171801 17 0 0.0 0.0 0.00 0.00 0.00 37 1009.6
20260506170901 17 0 0.0 0.0 0.00 0.00 0.00 36 1009.6
20260506165101 17 0 0.0 0.0 0.00 0.00 0.00 35 1008.6
20260506164201 18 0 0.0 0.0 0.00 0.00 0.00 34 1009.6
20260506162401 19 0 0.0 0.0 0.00 0.00 0.00 29 1009.6
20260506161501 20 0 0.0 0.0 0.00 0.00 0.00 27 1009.6
20260506160606 20 0 0.0 0.0 0.00 0.00 0.00 22 1009.6
20260506155700 21 0 0.0 0.0 0.00 0.00 0.00 7 1010.6
20260506154801 22 0 0.0 0.0 0.00 0.00 0.00 3 1010.6
20260506153900 23 0 0.0 0.0 0.00 0.00 0.00 2 1009.6
20260506153004 25 0 0.0 0.0 0.00 0.00 0.00 2 1009.6
20260506152100 26 0 0.0 0.0 0.00 0.00 0.00 2 1009.6
20260506151201 26 0 0.0 0.0 0.00 0.00 0.00 2 1009.6
20260506150304 27 0 0.0 0.0 0.00 0.00 0.00 2 1009.6
20260506145407 27 0 0.0 0.0 0.00 0.00 0.00 2 1009.6
20260506144509 27 0 0.0 0.0 0.00 0.00 0.00 2 1009.6
20260506143606 27 0 0.0 0.0 0.00 0.00 0.00 2 1009.6
20260506142707 27 0 0.0 0.0 0.00 0.00 0.00 2 1009.6
20260506140900 27 168 0.0 3.2 0.00 0.00 0.00 2 1009.6
20260506140000 27 184 0.0 3.2 0.00 0.00 0.00 2 1009.6